Time,TemperatureF,DewpointF,PressureIn,WindDirection,WindDirectionDegrees,WindSpeedMPH,WindSpeedGustMPH,Humidity,HourlyPrecipIn,Conditions,Clouds,dailyrainin,SoftwareType,DateUTC
2013-09-03 00:22:00,75.0,-99.9,-100.00,West,268,1.0,2.0,-999,-99.99,,,-99.99,,2013-09-03 06:22:00,
2013-09-03 00:32:00,75.0,-99.9,-100.00,West,268,1.0,2.0,-999,-99.99,,,-99.99,,2013-09-03 06:32:00,
2013-09-03 01:12:00,75.0,-99.9,-100.00,WSW,242,2.0,4.0,-999,-99.99,,,-99.99,,2013-09-03 07:12:00,
2013-09-03 01:22:00,75.0,-99.9,-100.00,WSW,242,2.0,4.0,-999,-99.99,,,-99.99,,2013-09-03 07:22:00,
2013-09-03 01:42:00,73.0,-99.9,-100.00,West,261,0.0,1.0,-999,-99.99,,,-99.99,,2013-09-03 07:42:00,
2013-09-03 02:40:00,72.0,-99.9,-100.00,NE,54,1.0,3.0,-999,-99.99,,,-99.99,,2013-09-03 08:40:00,
2013-09-03 03:22:00,72.0,-99.9,-100.00,NE,54,1.0,3.0,-999,-99.99,,,-99.99,,2013-09-03 09:22:00,
2013-09-03 03:34:00,72.0,-99.9,-100.00,NE,54,1.0,3.0,-999,-99.99,,,-99.99,,2013-09-03 09:34:00,
2013-09-03 03:50:00,70.0,-99.9,-100.00,West,267,1.0,2.0,-999,-99.99,,,-99.99,,2013-09-03 09:50:00,
2013-09-03 04:43:00,70.0,-99.9,-100.00,West,267,1.0,2.0,-999,-99.99,,,-99.99,,2013-09-03 10:43:00,
2013-09-03 05:43:00,72.0,-99.9,-100.00,NW,304,0.0,1.0,-999,-99.99,,,-99.99,,2013-09-03 11:43:00,
2013-09-03 06:10:00,73.0,-99.9,-100.00,WSW,241,2.0,2.0,-999,-99.99,,,-99.99,,2013-09-03 12:10:00,
2013-09-03 06:12:00,74.0,-99.9,-100.00,West,262,2.0,3.0,-999,-99.99,,,-99.99,,2013-09-03 12:12:00,
2013-09-03 06:22:00,74.0,-99.9,-100.00,West,262,2.0,3.0,-999,-99.99,,,-99.99,,2013-09-03 12:22:00,
2013-09-03 06:52:00,73.0,-99.9,-100.00,WSW,241,2.0,2.0,-999,-99.99,,,-99.99,,2013-09-03 12:52:00,
2013-09-03 07:02:00,73.0,-99.9,-100.00,WSW,241,2.0,2.0,-999,-99.99,,,-99.99,,2013-09-03 13:02:00,
2013-09-03 10:14:00,83.0,-99.9,-100.00,SSE,166,2.0,4.0,-999,-99.99,,,-99.99,,2013-09-03 16:14:00,
2013-09-03 14:20:00,94.0,-99.9,-100.00,WSW,250,3.0,5.0,-999,-99.99,,,-99.99,,2013-09-03 20:20:00,
2013-09-03 15:10:00,94.0,-99.9,-100.00,WSW,237,3.0,4.0,-999,-99.99,,,-99.99,,2013-09-03 21:10:00,
2013-09-03 15:12:00,94.0,-99.9,-100.00,WSW,250,3.0,5.0,-999,-99.99,,,-99.99,,2013-09-03 21:12:00,
2013-09-03 15:54:00,94.0,-99.9,-100.00,WSW,237,3.0,4.0,-999,-99.99,,,-99.99,,2013-09-03 21:54:00,
2013-09-03 16:04:00,94.0,-99.9,-100.00,WSW,237,3.0,4.0,-999,-99.99,,,-99.99,,2013-09-03 22:04:00,
2013-09-03 16:10:00,93.0,-99.9,-100.00,South,189,5.0,6.0,-999,-99.99,,,-99.99,,2013-09-03 22:10:00,
2013-09-03 16:53:00,93.0,-99.9,-100.00,South,189,5.0,6.0,-999,-99.99,,,-99.99,,2013-09-03 22:53:00,
2013-09-03 17:04:00,93.0,-99.9,-100.00,South,189,5.0,6.0,-999,-99.99,,,-99.99,,2013-09-03 23:04:00,
2013-09-03 17:23:00,94.0,-99.9,-100.00,SSW,200,4.0,4.0,-999,-99.99,,,-99.99,,2013-09-03 23:23:00,
2013-09-03 17:42:00,94.0,-99.9,-100.00,South,170,3.0,5.0,-999,-99.99,,,-99.99,,2013-09-03 23:42:00,
2013-09-03 17:54:00,94.0,-99.9,-100.00,South,170,3.0,5.0,-999,-99.99,,,-99.99,,2013-09-03 23:54:00,
2013-09-03 20:10:00,82.0,-99.9,-100.00,SW,218,4.0,5.0,-999,-99.99,,,-99.99,,2013-09-04 02:10:00,
2013-09-03 20:40:00,82.0,-99.9,-100.00,WSW,245,4.0,5.0,-999,-99.99,,,-99.99,,2013-09-04 02:40:00,
2013-09-03 20:43:00,83.0,-99.9,-100.00,SW,222,3.0,5.0,-999,-99.99,,,-99.99,,2013-09-04 02:43:00,
2013-09-03 20:52:00,82.0,-99.9,-100.00,SW,218,4.0,5.0,-999,-99.99,,,-99.99,,2013-09-04 02:52:00,
2013-09-03 21:03:00,82.0,-99.9,-100.00,SW,218,4.0,5.0,-999,-99.99,,,-99.99,,2013-09-04 03:03:00,
2013-09-03 21:23:00,82.0,-99.9,-100.00,WSW,245,4.0,5.0,-999,-99.99,,,-99.99,,2013-09-04 03:23:00,
2013-09-03 21:35:00,82.0,-99.9,-100.00,WSW,245,4.0,5.0,-999,-99.99,,,-99.99,,2013-09-04 03:35:00,
2013-09-03 22:40:00,78.0,-99.9,-100.00,SW,235,2.0,4.0,-999,-99.99,,,-99.99,,2013-09-04 04:40:00,
2013-09-03 23:23:00,78.0,-99.9,-100.00,SW,235,2.0,4.0,-999,-99.99,,,-99.99,,2013-09-04 05:23:00,
2013-09-03 23:34:00,78.0,-99.9,-100.00,SW,235,2.0,4.0,-999,-99.99,,,-99.99,,2013-09-04 05:34:00,
2013-09-03 23:53:00,77.0,-99.9,-100.00,WSW,237,3.0,3.0,-999,-99.99,,,-99.99,,2013-09-04 05:53:00,